Date,TemperatureHighF,TemperatureAvgF,TemperatureLowF,DewpointHighF,DewpointAvgF,DewpointLowF,HumidityHigh,HumidityAvg,HumidityLow,PressureMaxIn,PressureMinIn,WindSpeedMaxMPH,WindSpeedAvgMPH,GustSpeedMaxMPH,PrecipitationSumIn
2013-4-1,62,45,34,42,39,38,96,74,40,29.81,29.51,24,2,24,0.31
2013-4-2,39,34,27,40,38,34,68,50,37,29.95,29.81,27,4,27,0.00
2013-4-3,46,36,29,38,36,34,68,47,31,30.18,29.94,20,5,24,0.00
2013-4-4,55,42,28,38,37,34,69,46,26,30.31,30.05,12,1,12,0.00
2013-4-5,62,46,37,40,38,36,76,54,25,30.05,29.65,14,1,15,0.00
2013-4-6,47,37,29,40,37,33,64,44,24,30.34,29.90,14,1,14,0.00
2013-4-7,57,42,25,40,37,34,83,63,34,30.34,30.00,22,1,22,0.00
2013-4-8,66,53,42,43,40,36,94,67,37,30.08,29.96,9,0,9,0.00
2013-4-9,70,56,46,44,40,38,95,70,45,30.06,29.87,19,1,19,0.04
2013-4-10,65,53,46,44,41,39,96,83,61,30.02,29.84,8,0,8,0.15
2013-4-11,56,48,41,42,40,33,96,74,43,30.15,29.82,8,1,11,0.13
2013-4-12,41,37,35,41,40,38,96,93,79,30.17,29.81,13,1,13,0.46
2013-4-13,54,44,35,41,40,40,96,79,55,29.96,29.77,10,1,11,0.09
2013-4-14,52,44,33,42,41,40,92,68,44,30.23,29.92,13,1,14,0.00
2013-4-15,60,45,29,43,41,40,92,67,42,30.39,30.23,9,1,9,0.00
2013-4-16,68,52,39,42,41,39,90,74,50,30.40,30.06,20,1,20,0.01
2013-4-17,68,57,44,45,42,40,93,57,30,30.35,30.06,14,1,14,0.01
2013-4-18,66,50,33,43,41,39,90,60,38,30.43,30.13,11,1,12,0.00
2013-4-19,75,63,52,47,43,40,96,85,64,30.14,29.63,15,2,18,0.00
2013-4-20,66,53,42,46,44,40,95,68,40,30.24,29.60,15,2,16,0.43
2013-4-21,54,43,31,42,41,40,77,51,31,30.68,30.24,12,1,14,0.00
2013-4-22,51,41,29,42,41,40,92,69,38,30.75,30.60,15,2,15,0.00
2013-4-23,41,39,36,42,41,40,96,91,78,30.60,30.13,13,1,13,0.01
2013-4-24,76,57,40,48,44,42,100,72,30,30.13,29.79,12,1,13,0.01
2013-4-25,65,54,41,46,44,42,93,58,30,30.28,29.82,15,2,15,0.02
2013-4-26,62,48,32,44,42,40,89,63,43,30.43,30.28,11,1,12,0.00
2013-4-27,66,51,33,44,43,40,94,63,35,30.43,30.27,8,0,8,0.00
2013-4-28,73,55,36,45,43,40,92,57,30,30.34,30.19,11,1,11,0.00
2013-4-29,71,58,46,43,42,40,88,54,32,30.27,30.17,15,1,15,0.00
2013-4-30,72,58,45,47,43,40,76,43,25,30.36,30.25,9,1,9,0.00